N124MC KSHD-KROA

Flight info

Callsign N124MC
Flight time 0h 50m
Altitude 6500
Route VFR
Aircraft M20P/L-VGD/C

Departure

Time 2026-05-09 22:12
Airport Shenandoah Valley Regional Airport (KSHD)

Arrival

Time 2026-05-09 23:02
Airport Roanoke–Blacksburg Regional Airport (KROA)
Time Latitude Longitude Altitude Speed Heading
2026-05-09 22:08 38.26200 -78.90094 1185 ft 0 kts 34°
2026-05-09 22:10 38.26202 -78.90092 1185 ft 3 kts 40°
2026-05-09 22:11 38.26136 -78.90085 1185 ft 21 kts 198°
2026-05-09 22:11 38.25977 -78.90211 1182 ft 31 kts 210°
2026-05-09 22:11 38.25804 -78.90329 1178 ft 18 kts 197°
2026-05-09 22:11 38.25811 -78.90224 1178 ft 26 kts 42°
2026-05-09 22:12 38.26078 -78.89949 1185 ft 71 kts 38°
2026-05-09 22:12 38.26555 -78.89478 1252 ft 96 kts 35°
2026-05-09 22:12 38.27084 -78.88933 1486 ft 101 kts 48°
2026-05-09 22:12 38.27550 -78.88233 1812 ft 103 kts 50°
2026-05-09 22:13 38.27975 -78.87467 2169 ft 108 kts 57°
2026-05-09 22:13 38.28363 -78.86693 2509 ft 100 kts 55°
2026-05-09 22:13 38.28702 -78.85956 2810 ft 98 kts 55°
2026-05-09 22:13 38.29058 -78.85202 3047 ft 99 kts 54°
2026-05-09 22:14 38.29399 -78.84412 3305 ft 106 kts 58°
2026-05-09 22:14 38.29769 -78.83573 3556 ft 112 kts 58°
2026-05-09 22:14 38.30170 -78.82695 3822 ft 118 kts 58°
2026-05-09 22:14 38.30599 -78.81765 4078 ft 124 kts 57°
2026-05-09 22:15 38.31040 -78.80811 4339 ft 126 kts 57°
2026-05-09 22:15 38.31501 -78.79817 4607 ft 134 kts 57°
2026-05-09 22:15 38.31976 -78.78778 4857 ft 136 kts 57°
2026-05-09 22:15 38.32462 -78.77732 5112 ft 138 kts 57°
2026-05-09 22:16 38.32960 -78.76668 5360 ft 141 kts 57°
2026-05-09 22:16 38.33459 -78.75576 5608 ft 143 kts 58°
2026-05-09 22:16 38.33959 -78.74493 5861 ft 145 kts 57°
2026-05-09 22:16 38.34469 -78.73380 6112 ft 146 kts 57°
2026-05-09 22:17 38.34985 -78.72265 6363 ft 147 kts 57°
2026-05-09 22:17 38.35512 -78.71123 6485 ft 156 kts 57°
2026-05-09 22:17 38.36088 -78.69875 6492 ft 170 kts 57°
2026-05-09 22:17 38.36715 -78.68537 6489 ft 180 kts 57°
2026-05-09 22:18 38.37368 -78.67145 6483 ft 186 kts 57°
2026-05-09 22:18 38.38040 -78.65715 6482 ft 190 kts 57°
2026-05-09 22:18 38.38723 -78.64258 6473 ft 192 kts 57°
2026-05-09 22:18 38.39408 -78.62786 6473 ft 194 kts 57°
2026-05-09 22:19 38.40103 -78.61306 6471 ft 196 kts 57°
2026-05-09 22:19 38.40798 -78.59812 6462 ft 196 kts 57°
2026-05-09 22:19 38.41498 -78.58314 6462 ft 197 kts 57°
2026-05-09 22:19 38.42198 -78.56813 6460 ft 198 kts 57°
2026-05-09 22:20 38.42901 -78.55308 6467 ft 197 kts 57°
2026-05-09 22:20 38.43606 -78.53802 6457 ft 198 kts 57°
2026-05-09 22:20 38.44304 -78.52298 6461 ft 197 kts 57°
2026-05-09 22:20 38.45006 -78.50793 6459 ft 197 kts 57°
2026-05-09 22:21 38.45709 -78.49286 6467 ft 198 kts 57°
2026-05-09 22:21 38.46416 -78.47770 6463 ft 199 kts 57°
2026-05-09 22:21 38.47123 -78.46249 6465 ft 200 kts 57°
2026-05-09 22:21 38.47835 -78.44724 6460 ft 200 kts 57°
2026-05-09 22:22 38.48604 -78.43279 6459 ft 194 kts 47°
2026-05-09 22:22 38.49493 -78.41991 6461 ft 192 kts 45°
2026-05-09 22:22 38.50378 -78.40719 6457 ft 191 kts 46°
2026-05-09 22:22 38.51322 -78.39553 6450 ft 186 kts 25°
2026-05-09 22:23 38.52514 -78.39386 6454 ft 171 kts 336°
2026-05-09 22:23 38.53328 -78.40367 6460 ft 163 kts 288°
2026-05-09 22:23 38.53226 -78.41754 6463 ft 162 kts 241°
2026-05-09 22:23 38.52280 -78.42521 6461 ft 171 kts 191°
2026-05-09 22:24 38.51084 -78.42393 6463 ft 171 kts 185°
2026-05-09 22:24 38.50016 -78.42910 6458 ft 165 kts 219°
2026-05-09 22:24 38.49090 -78.43766 6460 ft 165 kts 220°
2026-05-09 22:24 38.48167 -78.44628 6454 ft 162 kts 220°
2026-05-09 22:25 38.47210 -78.45392 6465 ft 165 kts 213°
2026-05-09 22:25 38.46184 -78.46082 6469 ft 169 kts 212°
2026-05-09 22:25 38.45137 -78.46795 6465 ft 172 kts 213°
2026-05-09 22:25 38.44076 -78.47508 6468 ft 172 kts 211°
2026-05-09 22:26 38.43014 -78.48230 6463 ft 175 kts 212°
2026-05-09 22:26 38.41941 -78.48955 6464 ft 174 kts 212°
2026-05-09 22:26 38.40869 -78.49683 6459 ft 175 kts 212°
2026-05-09 22:26 38.39796 -78.50411 6456 ft 174 kts 212°
2026-05-09 22:27 38.38730 -78.51138 6459 ft 174 kts 212°
2026-05-09 22:27 38.37686 -78.51884 6450 ft 169 kts 217°
2026-05-09 22:27 38.36736 -78.52733 6496 ft 167 kts 219°
2026-05-09 22:27 38.35782 -78.53595 6496 ft 169 kts 219°
2026-05-09 22:28 38.34826 -78.54465 6501 ft 168 kts 219°
2026-05-09 22:28 38.33882 -78.55335 6501 ft 167 kts 219°
2026-05-09 22:28 38.32928 -78.56203 6506 ft 170 kts 219°
2026-05-09 22:28 38.31965 -78.57093 6503 ft 171 kts 219°
2026-05-09 22:29 38.31000 -78.57977 6502 ft 171 kts 219°
2026-05-09 22:29 38.30035 -78.58859 6515 ft 171 kts 219°
2026-05-09 22:29 38.29069 -78.59732 6513 ft 168 kts 218°
2026-05-09 22:29 38.28119 -78.60611 6516 ft 170 kts 220°
2026-05-09 22:30 38.27150 -78.61495 6514 ft 172 kts 219°
2026-05-09 22:30 38.26182 -78.62386 6514 ft 172 kts 219°
2026-05-09 22:30 38.25213 -78.63282 6502 ft 172 kts 219°
2026-05-09 22:30 38.24255 -78.64173 6506 ft 170 kts 219°
2026-05-09 22:31 38.23302 -78.65058 6501 ft 168 kts 219°
2026-05-09 22:31 38.22348 -78.65927 6503 ft 170 kts 219°
2026-05-09 22:31 38.21391 -78.66801 6501 ft 169 kts 219°
2026-05-09 22:31 38.20436 -78.67679 6527 ft 170 kts 219°
2026-05-09 22:32 38.19478 -78.68561 6529 ft 170 kts 219°
2026-05-09 22:32 38.18521 -78.69443 6527 ft 170 kts 219°
2026-05-09 22:32 38.17569 -78.70325 6525 ft 169 kts 219°
2026-05-09 22:32 38.16623 -78.71198 6514 ft 165 kts 219°
2026-05-09 22:33 38.15703 -78.72042 6533 ft 162 kts 219°
2026-05-09 22:33 38.14795 -78.72885 6523 ft 162 kts 219°
2026-05-09 22:33 38.13878 -78.73724 6533 ft 164 kts 219°
2026-05-09 22:33 38.12942 -78.74576 6526 ft 165 kts 219°
2026-05-09 22:34 38.12005 -78.75433 6530 ft 168 kts 219°
2026-05-09 22:34 38.11059 -78.76303 6530 ft 169 kts 219°
2026-05-09 22:34 38.10115 -78.77182 6531 ft 168 kts 220°
2026-05-09 22:34 38.09164 -78.78058 6533 ft 170 kts 219°
2026-05-09 22:35 38.08228 -78.78985 6529 ft 171 kts 224°
2026-05-09 22:35 38.07335 -78.79983 6526 ft 171 kts 224°
2026-05-09 22:35 38.06440 -78.80984 6524 ft 171 kts 224°
2026-05-09 22:35 38.05548 -78.81985 6522 ft 171 kts 224°
2026-05-09 22:36 38.04663 -78.82975 6521 ft 168 kts 224°
2026-05-09 22:36 38.03789 -78.83956 6521 ft 167 kts 224°
2026-05-09 22:36 38.02916 -78.84933 6521 ft 167 kts 224°
2026-05-09 22:36 38.02042 -78.85907 6518 ft 168 kts 225°
2026-05-09 22:37 38.01173 -78.86891 6509 ft 167 kts 224°
2026-05-09 22:37 38.00324 -78.87861 6513 ft 163 kts 225°
2026-05-09 22:37 37.99460 -78.88824 6514 ft 166 kts 224°
2026-05-09 22:37 37.98589 -78.89772 6508 ft 168 kts 224°
2026-05-09 22:38 37.97710 -78.90745 6514 ft 168 kts 224°
2026-05-09 22:38 37.96821 -78.91735 6513 ft 171 kts 224°
2026-05-09 22:38 37.95934 -78.92738 6509 ft 171 kts 224°
2026-05-09 22:39 37.94205 -78.94795 6509 ft 169 kts 229°
2026-05-09 22:39 37.93398 -78.95896 6504 ft 171 kts 230°
2026-05-09 22:39 37.92589 -78.96999 6501 ft 171 kts 230°
2026-05-09 22:40 37.90970 -78.99193 6501 ft 169 kts 230°
2026-05-09 22:40 37.90168 -79.00285 6499 ft 169 kts 229°
2026-05-09 22:40 37.89372 -79.01375 6495 ft 168 kts 229°
2026-05-09 22:40 37.88558 -79.02431 6499 ft 168 kts 225°
2026-05-09 22:41 37.87666 -79.03393 6512 ft 169 kts 223°
2026-05-09 22:41 37.86757 -79.04346 6518 ft 170 kts 222°
2026-05-09 22:41 37.85853 -79.05295 6535 ft 169 kts 223°
2026-05-09 22:41 37.84944 -79.06236 6538 ft 169 kts 223°
2026-05-09 22:42 37.84043 -79.07178 6551 ft 168 kts 222°
2026-05-09 22:42 37.83165 -79.08144 6555 ft 167 kts 227°
2026-05-09 22:42 37.82368 -79.09210 6567 ft 166 kts 230°
2026-05-09 22:42 37.81576 -79.10275 6579 ft 167 kts 230°
2026-05-09 22:43 37.80783 -79.11353 6584 ft 166 kts 230°
2026-05-09 22:43 37.79984 -79.12421 6593 ft 168 kts 229°
2026-05-09 22:43 37.79186 -79.13493 6592 ft 167 kts 230°
2026-05-09 22:43 37.78390 -79.14540 6619 ft 165 kts 229°
2026-05-09 22:44 37.77603 -79.15603 6623 ft 167 kts 230°
2026-05-09 22:44 37.76798 -79.16679 6556 ft 171 kts 229°
2026-05-09 22:44 37.75987 -79.17773 6517 ft 171 kts 229°
2026-05-09 22:44 37.75173 -79.18870 6516 ft 171 kts 229°
2026-05-09 22:45 37.74370 -79.19964 6520 ft 169 kts 229°
2026-05-09 22:45 37.73575 -79.21060 6539 ft 170 kts 230°
2026-05-09 22:45 37.72767 -79.22161 6536 ft 171 kts 230°
2026-05-09 22:45 37.71955 -79.23261 6540 ft 172 kts 230°
2026-05-09 22:46 37.71138 -79.24357 6538 ft 171 kts 229°
2026-05-09 22:46 37.70333 -79.25442 6543 ft 169 kts 230°
2026-05-09 22:46 37.69528 -79.26528 6541 ft 170 kts 229°
2026-05-09 22:47 37.67917 -79.28708 6540 ft 169 kts 230°
2026-05-09 22:47 37.67120 -79.29793 6538 ft 168 kts 230°
2026-05-09 22:47 37.66316 -79.30872 6548 ft 170 kts 230°
2026-05-09 22:47 37.65506 -79.31951 6536 ft 169 kts 230°
2026-05-09 22:48 37.64696 -79.33025 6507 ft 169 kts 229°
2026-05-09 22:48 37.63894 -79.34102 6493 ft 168 kts 230°
2026-05-09 22:48 37.63107 -79.35159 6488 ft 166 kts 230°
2026-05-09 22:48 37.62315 -79.36226 6491 ft 168 kts 230°
2026-05-09 22:49 37.61516 -79.37304 6474 ft 168 kts 230°
2026-05-09 22:49 37.60726 -79.38382 6473 ft 167 kts 230°
2026-05-09 22:49 37.59934 -79.39461 6472 ft 168 kts 230°
2026-05-09 22:49 37.59145 -79.40526 6464 ft 165 kts 230°
2026-05-09 22:50 37.58363 -79.41585 6447 ft 164 kts 230°
2026-05-09 22:50 37.57583 -79.42635 6445 ft 164 kts 230°
2026-05-09 22:50 37.56804 -79.43677 6423 ft 163 kts 229°
2026-05-09 22:50 37.56049 -79.44694 6490 ft 158 kts 230°
2026-05-09 22:51 37.55293 -79.45724 6484 ft 160 kts 230°
2026-05-09 22:51 37.54537 -79.46767 6430 ft 163 kts 229°
2026-05-09 22:51 37.53761 -79.47840 6426 ft 168 kts 230°
2026-05-09 22:51 37.52968 -79.48933 6431 ft 170 kts 230°
2026-05-09 22:52 37.52170 -79.50015 6421 ft 167 kts 229°
2026-05-09 22:52 37.51409 -79.51078 6495 ft 161 kts 233°
2026-05-09 22:52 37.50741 -79.52209 6499 ft 161 kts 236°
2026-05-09 22:52 37.50093 -79.53376 6494 ft 163 kts 237°
2026-05-09 22:53 37.49441 -79.54553 6493 ft 165 kts 237°
2026-05-09 22:53 37.48997 -79.55349 6496 ft 164 kts 236°
2026-05-09 22:53 37.48342 -79.56534 6494 ft 165 kts 236°
2026-05-09 22:53 37.47689 -79.57725 6499 ft 165 kts 237°
2026-05-09 22:54 37.47037 -79.58927 6505 ft 168 kts 237°
2026-05-09 22:54 37.46379 -79.60138 6496 ft 167 kts 237°
2026-05-09 22:54 37.45721 -79.61332 6493 ft 165 kts 238°
2026-05-09 22:54 37.45062 -79.62516 6507 ft 166 kts 237°
2026-05-09 22:55 37.44415 -79.63697 6508 ft 166 kts 237°
2026-05-09 22:55 37.43750 -79.64914 6508 ft 167 kts 237°
2026-05-09 22:55 37.43100 -79.66115 6397 ft 170 kts 237°
2026-05-09 22:55 37.42435 -79.67349 6283 ft 171 kts 237°
2026-05-09 22:56 37.41772 -79.68591 6160 ft 171 kts 237°
2026-05-09 22:56 37.41111 -79.69844 6031 ft 173 kts 237°
2026-05-09 22:56 37.40444 -79.71116 5908 ft 175 kts 237°
2026-05-09 22:56 37.39782 -79.72390 5780 ft 174 kts 237°
2026-05-09 22:57 37.39122 -79.73672 5652 ft 174 kts 237°
2026-05-09 22:57 37.38468 -79.74956 5530 ft 175 kts 237°
2026-05-09 22:57 37.37812 -79.76245 5392 ft 173 kts 236°
2026-05-09 22:57 37.37181 -79.77530 5291 ft 174 kts 237°
2026-05-09 22:58 37.36534 -79.78836 5159 ft 177 kts 238°
2026-05-09 22:58 37.35969 -79.80206 5040 ft 177 kts 242°
2026-05-09 22:58 37.35427 -79.81597 4919 ft 178 kts 242°
2026-05-09 22:58 37.34893 -79.82994 4694 ft 175 kts 242°
2026-05-09 22:59 37.34372 -79.84356 4430 ft 172 kts 242°
2026-05-09 22:59 37.33876 -79.85700 4175 ft 168 kts 242°
2026-05-09 22:59 37.33405 -79.86994 3912 ft 159 kts 242°
2026-05-09 22:59 37.32960 -79.88247 3658 ft 154 kts 242°
2026-05-09 23:00 37.32542 -79.89469 3289 ft 151 kts 242°
2026-05-09 23:00 37.32028 -79.90579 2898 ft 145 kts 229°
2026-05-09 23:00 37.31424 -79.91568 2516 ft 141 kts 228°
2026-05-09 23:00 37.30852 -79.92543 2249 ft 136 kts 230°
2026-05-09 23:01 37.30326 -79.93450 2163 ft 111 kts 229°
2026-05-09 23:01 37.29935 -79.94182 2008 ft 101 kts 242°
2026-05-09 23:01 37.29913 -79.95033 1746 ft 99 kts 282°
2026-05-09 23:01 37.30128 -79.95771 1605 ft 83 kts 301°
2026-05-09 23:02 37.30542 -79.96270 1438 ft 82 kts 323°
2026-05-09 23:02 37.31011 -79.96643 1345 ft 78 kts 326°
2026-05-09 23:02 37.31455 -79.96986 1204 ft 70 kts 325°
2026-05-09 23:02 37.31824 -79.97275 1153 ft 49 kts 324°
2026-05-09 23:03 37.32045 -79.97438 1157 ft 24 kts 348°
2026-05-09 23:03 37.32165 -79.97345 1155 ft 20 kts 27°
2026-05-09 23:03 37.32280 -79.97383 1156 ft 15 kts 30°
2026-05-09 23:03 37.32328 -79.97342 1157 ft 0 kts 53°